Flag for U.S.A. Weather past 2 weeks in Richmond, Virginia, U.S.A.

Now
76 °F

Passing clouds.


Feels Like: 76 °F
Forecast: 71 / 82 °F
Wind: No wind

Location: Richmond International Airport

Current Time: Jul 2, 2015 at 6:50:37 AM

Latest Report: Jul 2, 2015 at 5:54 AM


Visibility: 4 mi

Pressure: 29.86 "Hg

Humidity: 85%

Dew point: 71 °F

Location of RichmondLocation

Historic Weather in Richmond — Graph

°F

Richmond temperature yesterday

Maximum temperature yesterday: 87 °F (at 3:54 PM)
Minimum temperature yesterday: 68 °F (at 5:54 AM)
Average temperature yesterday: 78 °F

Past Weeks' High & Low Weather Summary

 TemperatureHumidityPressure
High98 °F (Jun 23, 1:54 PM)99% (Jun 27, 4:54 AM)30.13 "Hg (Jun 27, 4:54 AM)
Low61 °F (Jun 29, 3:54 AM)35% (Jun 23, 3:54 PM)29.68 "Hg (Jun 28, 2:54 AM)
Average80 °F68%29.95 "Hg
* Reported Jun 17 6:54 AM — Jul 2 5:54 AM, Richmond, Weather by CustomWeather, © 2015

Note: Actual official high and low records may vary slightly from our data, if they occured in-between our weather recording intervals... More about our weather records

Advertising

Richmond weather history for previous 24 hours

 ConditionsComfort  
Time TempWeatherWind HumidityBarometerVisibility
5:54 AM
Thu, Jul 2
76 °FPassing clouds.No wind85%29.86 "Hg4 mi
4:54 AM76 °FPassing clouds.5 mph85%29.86 "Hg7 mi
3:54 AM75 °FPassing clouds.3 mph88%29.87 "Hg8 mi
2:54 AM76 °FOvercast.5 mph85%29.89 "Hg8 mi
1:54 AM76 °FMostly cloudy.6 mph85%29.89 "Hg7 mi
12:54 AM75 °FMostly cloudy.6 mph85%29.90 "Hg8 mi
11:54 PM
Wed, Jul 1
76 °FHigh level clouds.5 mph80%29.91 "Hg9 mi
10:54 PM76 °FHigh level clouds.3 mph82%29.93 "Hg9 mi
9:54 PM76 °FPassing clouds.6 mph80%29.91 "Hg10 mi
8:54 PM77 °FScattered clouds.6 mph77%29.89 "Hg10 mi
7:54 PM82 °FPassing clouds.9 mph63%29.90 "Hg10 mi
6:54 PM85 °FPassing clouds.10 mph53%29.88 "Hg10 mi
5:54 PM86 °FScattered clouds.13 mph51%29.87 "Hg10 mi
4:54 PM87 °FPartly sunny.13 mph48%29.88 "Hg10 mi
3:54 PM87 °FOvercast.13 mph46%29.89 "Hg10 mi
2:54 PM86 °FHigh level clouds.8 mph49%29.89 "Hg10 mi
1:54 PM86 °FHigh level clouds.9 mph46%29.90 "Hg10 mi
12:54 PM85 °FPartly sunny.10 mph46%29.92 "Hg10 mi
11:54 AM83 °FPartly sunny.9 mph51%29.92 "Hg10 mi
10:54 AM80 °FPartly sunny.13 mph60%29.92 "Hg10 mi
9:54 AM78 °FPartly sunny.10 mph62%29.90 "Hg10 mi
8:54 AM75 °FPartly sunny.8 mph76%29.91 "Hg10 mi
7:54 AM71 °FScattered clouds.7 mph90%29.90 "Hg7 mi
6:54 AM69 °FFog.6 mph93%29.89 "Hg4 mi
Weather by CustomWeather, © 2015

See weather overviewHow to use our weather pages